{"data":{"norad_id":52841,"intl_designator":"2022-062M","name":"STARLINK-4065","alt_names":[],"object_type":"PAYLOAD","status":"ACTIVE","operator":null,"country":"US","launch_date":"2022-06-17","launch_site_code":"AFETR","launch_vehicle":null,"mission":null,"orbit_class":"UNKNOWN","rcs_meters":null,"size_class":null,"mass_kg":null,"dimensions":null,"purposes":["comms"],"wikipedia_slug":null,"has_3d_model":false,"image_url":null,"decayed_at":null,"tle_current":{"epoch":"2026-09-20T04:38:08.132352Z","epoch_age_seconds":92907,"freshness":"FRESH","line1":"1 52841U 22062M   26263.19314968  .00004611  00000+0  14757-3 0  9990","line2":"2 52841  53.1596 228.9135 0001259  85.7172 274.3974 15.34386291235310","mean_motion":15.34386291,"eccentricity":0.0001259,"inclination_deg":53.1596,"raan_deg":228.9135,"arg_perigee_deg":85.7172,"mean_anomaly_deg":274.3974,"bstar":0.00014757,"rev_number":23531,"period_min":93.8485965657,"perigee_km":461.88271963131,"apogee_km":463.60525346372,"semimajor_km":6840.8809865475,"source":"CELESTRAK","updated_at":"2026-09-20T09:00:40.113006Z"}}}